{"data":{"norad_id":43564,"epoch":"2026-09-20T02:11:46.629024Z","epoch_age_seconds":57172,"freshness":"FRESH","line1":"1 43564U 18060A   26263.09151191 -.00000088  00000+0  00000+0 0  9998","line2":"2 43564  57.1307 339.2176 0004716 270.4507  89.5496  1.70476424 50787","mean_motion":1.70476424,"eccentricity":0.0004716,"inclination_deg":57.1307,"raan_deg":339.2176,"arg_perigee_deg":270.4507,"mean_anomaly_deg":89.5496,"bstar":0,"rev_number":5078,"period_min":844.69158034427,"perigee_km":23207.943087482,"apogee_km":23235.861844706,"semimajor_km":29600.039466094,"source":"CELESTRAK","updated_at":"2026-09-20T09:00:46.496961Z"}}